x

Yucatan Basin - 120 Nm Ese Of Cozumel, Mx (42056) Wave Buoy

10:50am - Thu 23rd Oct 2014 All times are CDT. -5 hours from GMT.

  • Sig Wave height 5.2ft
  • Swell Direction
  • Peak Period 7s
  • Average Period 5s
  • Wind
    13mph, 22mph gusts
  • Sea Temp 84°f
  • Air Temp 80°f
  • Sea Pressure 1008.5mb
  •  Yucatan Basin - 120 Nm Ese Of Cozumel, Mx
  •  Yucatan Basin - 120 Nm Ese Of Cozumel, Mx

More Historic Weather Station data

Upgrade to MSW Pro to gain access to the past 30 days of data for over 8000 Wavebouys and Weather Stations around the globe.

Join Pro

Comparision Forecast

View Surf forecast
   
Thu 10/23 10:50am 5ft 7s 5s 13 22 mph 1008.5mb 84f 80f
9:50am 5.5ft 7s 5s 7 9 mph 1008.2mb 84f 82f
8:50am 5ft 7s 5s 18 22 mph 1007.1mb 84f 84f
6:50am 5ft 7s 5s 18 20 mph 1006.8mb 84f 84f
5:50am 5.5ft 7s 5s 16 20 mph 1006.1mb 84f 84f
4:50am 5ft 7s 5s 18 20 mph 1006mb 84f 84f
3:50am 5ft 7s 5s 16 18 mph 1006.2mb 84f 84f
2:50am 5.5ft 7s 6s 16 18 mph 1006.3mb 84f 84f
1:50am 6ft 7s 6s 13 18 mph 1007mb 84f 84f
12:50am 6ft 7s 6s 13 16 mph 1007.7mb 84f 84f
Wed 10/22 11:50pm 6ft 7s 6s 13 16 mph 1008.4mb 84f 84f
10:50pm 6.5ft 7s 6s 13 22 mph 1008.7mb 84f 84f
9:50pm 6.5ft 7s 6s 9 11 mph 1009.1mb 84f 84f
8:50pm 6ft 7s 6s 9 11 mph 1008.7mb 84f 84f
7:50pm 6ft 7s 6s 13 16 mph 1007.7mb 84f 84f
6:50pm 6.5ft 7s 6s 16 18 mph 1007.2mb 84f 84f
5:50pm 7ft 7s 6s 16 18 mph 1007.2mb 84f 84f
4:50pm 7ft 7s 6s 16 20 mph 1006.6mb 84f 84f
3:50pm 7ft 7s 5s 18 22 mph 1006.4mb 84f 84f
2:50pm 7ft 7s 5s 22 27 mph 1006.3mb 84f 84f
1:50pm 7ft 7s 5s 20 25 mph 1007mb 84f 84f
12:50pm 6.5ft 7s 5s 22 27 mph 1007.7mb 84f 84f
11:50am 6ft 7s 5s 22 27 mph 1008.7mb 84f 85f
10:50am 6ft 7s 5s 22 27 mph 1008.9mb 84f 85f
9:50am 5.5ft 7s 5s 25 29 mph 1008.4mb 84f 84f
8:50am 6ft 7s 5s 20 22 mph 1008.7mb 84f 83f
7:50am 6ft 7s 5s 22 29 mph 1007.9mb 84f 83f
6:50am 6ft 7s 5s 22 27 mph 1007.5mb 84f 84f
5:50am 6.5ft 7s 5s 18 22 mph 1006.9mb 84f 82f
4:50am 5.5ft 7s 5s 18 27 mph 1007.3mb 84f 81f
3:50am 6ft 7s 5s 20 25 mph 1006.9mb 84f 84f
2:50am 6ft 7s 5s 20 22 mph 1007.3mb 84f 84f
1:50am 5.5ft 7s 5s 20 25 mph 1007.3mb 84f 84f
12:50am 5.5ft 7s 5s 20 22 mph 1008mb 84f 84f
Tue 10/21 11:50pm 5ft 6s 5s 20 25 mph 1008.6mb 84f 84f
10:50pm 5ft 7s 5s 20 25 mph 1009.1mb 84f 84f
9:50pm 5ft 7s 5s 22 27 mph 1009mb 84f 83f
8:50pm 5ft 7s 5s 20 22 mph 1008.8mb 85f 84f
7:50pm 5.5ft 7s 5s 18 22 mph 1008.2mb 85f 83f
6:50pm 5ft 7s 5s 25 38 mph 1007.7mb 85f 82f
5:50pm 5.5ft 7s 5s 20 25 mph 1007.6mb 85f 80f
4:50pm 5.5ft 6s 5s 18 22 mph 1006.9mb 85f 83f
3:50pm 5.5ft 6s 5s 18 22 mph 1006.9mb 85f 81f
2:50pm 5ft 7s 5s 18 20 mph 1007.4mb 85f 84f
1:50pm 5.5ft 7s 5s 20 25 mph 1007.7mb 85f 84f
12:50pm 5.5ft 7s 5s 20 22 mph 1008.9mb 85f 83f
11:50am 5ft 6s 5s 18 22 mph 1010.3mb 85f 83f
10:50am 4.5ft 7s 5s 16 18 mph 1010.9mb 85f 84f
9:50am 5ft 6s 5s 18 22 mph 1010.9mb 85f 83f
8:50am 5ft 6s 5s 20 25 mph 1010.3mb 85f 84f
7:50am 5.5ft 6s 5s 20 25 mph 1009.9mb 85f 83f
6:50am 5ft 6s 5s 18 22 mph 1009.3mb 85f 81f
4:50am 5ft 7s 5s 18 22 mph 1009mb 85f 83f
3:50am 5ft 6s 5s 13 18 mph 1009.1mb 85f 82f
2:50am 4ft 6s 5s 18 22 mph 1008.6mb 85f 83f
1:50am 4.5ft 6s 4s 20 27 mph 1009.4mb 85f 78f
12:50am 4.5ft 6s 5s 18 22 mph 1010.1mb 85f 84f
Mon 10/20 11:50pm 4ft 6s 5s 18 20 mph 1010.6mb 85f 83f
10:50pm 4ft 6s 4s 27 36 mph 1010.5mb 85f 83f
9:50pm 4.5ft 5s 4s 20 22 mph 1011.1mb 85f 84f
8:50pm 3.5ft 5s 4s 20 22 mph 1010.9mb 85f 82f
7:50pm 3ft 5s 4s 20 22 mph 1010mb 85f 84f
6:50pm 3.5ft 6s 4s 27 38 mph 1009.1mb 85f 78f
5:50pm 3.5ft 5s 4s 18 20 mph 1008.8mb 85f 82f
4:50pm 3.5ft 5s 4s 16 18 mph 1009.1mb 85f 83f
3:50pm 3.5ft 5s 4s 11 13 mph 1009.3mb 85f 83f
2:50pm 3.5ft 5s 4s 13 16 mph 1009.7mb 85f 83f
1:50pm 3.5ft 4s 4s 13 16 mph 1010.6mb 85f 82f
12:50pm 3.5ft 4s 4s 20 25 mph 1011.3mb 85f 82f
11:50am 3ft 4s 4s 20 25 mph 1012.1mb 85f 82f
10:50am 2.5ft 4s 4s 13 16 mph 1012.8mb 84f 83f
9:50am 2.5ft 4s 4s 18 22 mph 1013.1mb 84f 80f
8:50am 2.5ft 4s 4s 13 16 mph 1012.7mb 84f 83f
7:50am 2.5ft 5s 4s 11 13 mph 1012.2mb 84f 83f
6:50am 2.5ft 5s 4s 11 13 mph 1011.8mb 84f 82f
5:50am 2.5ft 4s 4s 13 16 mph 1011.3mb 84f 83f
4:50am 2.5ft 4s 4s 13 16 mph 1010.7mb 84f 83f
3:50am 2.5ft 4s 4s 13 16 mph 1011mb 84f 83f
2:50am 2.5ft 5s 4s 9 13 mph 1011.1mb 84f 83f
1:50am 2.5ft 4s 4s 11
mph
1011.8mb 84f 82f
12:50am 2.5ft 6s 4s 13 18 mph 1012.3mb 84f 82f
Sun 10/19 10:50pm 2ft 6s 4s 11 22 mph 1013.3mb 85f 84f
9:50pm 2ft 6s 4s 11 13 mph 1013.1mb 85f 84f
8:50pm 2ft 6s 4s 7 11 mph 1012.8mb 85f 82f
7:50pm 1.6ft 6s 4s 11 13 mph 1011.7mb 85f 84f
6:50pm 1.6ft 5s 4s 9 11 mph 1011mb 85f 84f
5:50pm 1.3ft 5s 4s 9 11 mph 1010.8mb 85f 84f